EJU38NA EGGD-EHAM

Flight info

Callsign EJU38NA
Flight time 0h 56m
Altitude 29000
Route YORQI L607 ALHAD P72 IPRIL M197 REDFA
Aircraft A320/M-SDE2E3FGHIJ1RWXYZ/LB1

Departure

Time 2026-04-30 20:09
Airport Bristol Airport (EGGD)

Arrival

Time 2026-04-30 21:06
Airport Amsterdam Airport Schiphol (EHAM)
Time Latitude Longitude Altitude Speed Heading
2026-04-30 19:47 51.38523 -2.71078 615 ft 0 kts 356°
2026-04-30 20:01 51.38500 -2.71075 617 ft 4 kts 347°
2026-04-30 20:02 51.38462 -2.71031 619 ft 3 kts 269°
2026-04-30 20:02 51.38462 -2.71020 617 ft 0 kts 266°
2026-04-30 20:04 51.38461 -2.71058 620 ft 10 kts 266°
2026-04-30 20:04 51.38455 -2.71207 615 ft 14 kts 266°
2026-04-30 20:05 51.38436 -2.71678 614 ft 26 kts 266°
2026-04-30 20:05 51.38433 -2.71947 606 ft 22 kts 271°
2026-04-30 20:05 51.38419 -2.72375 611 ft 18 kts 266°
2026-04-30 20:06 51.38408 -2.72634 620 ft 29 kts 266°
2026-04-30 20:06 51.38396 -2.72946 605 ft 24 kts 266°
2026-04-30 20:06 51.38389 -2.73142 607 ft 7 kts 267°
2026-04-30 20:06 51.38388 -2.73159 608 ft 0 kts 265°
2026-04-30 20:07 51.38386 -2.73190 609 ft 9 kts 264°
2026-04-30 20:08 51.38349 -2.73321 625 ft 12 kts 216°
2026-04-30 20:08 51.38264 -2.73330 620 ft 14 kts 157°
2026-04-30 20:08 51.38216 -2.73236 626 ft 7 kts 95°
2026-04-30 20:08 51.38221 -2.73086 629 ft 39 kts 86°
2026-04-30 20:09 51.38255 -2.72247 632 ft 109 kts 86°
2026-04-30 20:09 51.38319 -2.70796 905 ft 136 kts 88°
2026-04-30 20:09 51.38419 -2.67770 2107 ft 148 kts 95°
2026-04-30 20:10 51.38506 -2.63977 2763 ft 194 kts 92°
2026-04-30 20:10 51.38568 -2.61672 3177 ft 221 kts 92°
2026-04-30 20:10 51.38644 -2.59083 3701 ft 245 kts 91°
2026-04-30 20:11 51.40151 -2.53988 5319 ft 281 kts 39°
2026-04-30 20:11 51.41804 -2.52247 6310 ft 287 kts 32°
2026-04-30 20:11 51.43567 -2.50708 7285 ft 290 kts 30°
2026-04-30 20:12 51.47140 -2.47619 9155 ft 297 kts 33°
2026-04-30 20:12 51.48931 -2.45923 10090 ft 301 kts 34°
2026-04-30 20:12 51.50586 -2.43866 10883 ft 301 kts 53°
2026-04-30 20:13 51.51611 -2.40988 11665 ft 297 kts 77°
2026-04-30 20:13 51.51857 -2.37746 12468 ft 293 kts 98°
2026-04-30 20:13 51.51651 -2.34369 12793 ft 316 kts 101°
2026-04-30 20:13 51.51400 -2.30811 13386 ft 326 kts 101°
2026-04-30 20:14 51.51139 -2.27168 14155 ft 331 kts 101°
2026-04-30 20:14 51.50879 -2.23527 14876 ft 334 kts 101°
2026-04-30 20:14 51.50615 -2.19801 15609 ft 337 kts 101°
2026-04-30 20:14 51.50351 -2.16038 16336 ft 341 kts 101°
2026-04-30 20:15 51.50087 -2.12248 17057 ft 344 kts 101°
2026-04-30 20:15 51.49819 -2.08419 17793 ft 347 kts 101°
2026-04-30 20:15 51.49547 -2.04552 18491 ft 350 kts 101°
2026-04-30 20:15 51.49271 -2.00649 19105 ft 354 kts 101°
2026-04-30 20:16 51.48995 -1.96715 19739 ft 356 kts 101°
2026-04-30 20:16 51.48716 -1.92741 20360 ft 359 kts 101°
2026-04-30 20:16 51.48432 -1.88748 20962 ft 362 kts 101°
2026-04-30 20:16 51.48144 -1.84720 21575 ft 365 kts 101°
2026-04-30 20:17 51.47852 -1.80720 22145 ft 368 kts 101°
2026-04-30 20:17 51.47550 -1.76635 22726 ft 370 kts 101°
2026-04-30 20:17 51.47243 -1.72520 23297 ft 373 kts 101°
2026-04-30 20:17 51.46933 -1.68366 23846 ft 376 kts 102°
2026-04-30 20:18 51.46432 -1.64254 24297 ft 377 kts 106°
2026-04-30 20:18 51.45875 -1.60130 24749 ft 380 kts 106°
2026-04-30 20:18 51.45310 -1.55984 25194 ft 383 kts 106°
2026-04-30 20:18 51.44734 -1.51805 25635 ft 386 kts 106°
2026-04-30 20:19 51.44153 -1.47594 26069 ft 389 kts 106°
2026-04-30 20:19 51.43766 -1.44779 26346 ft 391 kts 106°
2026-04-30 20:19 51.42993 -1.39132 26945 ft 393 kts 106°
2026-04-30 20:19 51.42404 -1.34839 27385 ft 396 kts 106°
2026-04-30 20:20 51.41802 -1.30513 27813 ft 398 kts 106°
2026-04-30 20:20 51.41195 -1.26171 28230 ft 401 kts 106°
2026-04-30 20:20 51.40622 -1.21781 28639 ft 406 kts 102°
2026-04-30 20:20 51.40457 -1.17237 29034 ft 414 kts 91°
2026-04-30 20:21 51.40812 -1.12639 29176 ft 417 kts 81°
2026-04-30 20:21 51.41693 -1.08285 29191 ft 405 kts 70°
2026-04-30 20:21 51.42915 -1.04285 29192 ft 396 kts 68°
2026-04-30 20:22 51.45318 -0.96477 29192 ft 392 kts 69°
2026-04-30 20:22 51.47689 -0.88652 29194 ft 390 kts 69°
2026-04-30 20:23 51.50057 -0.80822 29194 ft 390 kts 69°
2026-04-30 20:23 51.52424 -0.72998 29194 ft 389 kts 69°
2026-04-30 20:24 51.54769 -0.65235 29187 ft 389 kts 69°
2026-04-30 20:24 51.57124 -0.57410 29186 ft 389 kts 69°
2026-04-30 20:25 51.60639 -0.45654 29184 ft 389 kts 69°
2026-04-30 20:26 51.64141 -0.33878 29266 ft 389 kts 69°
2026-04-30 20:26 51.67538 -0.22107 29263 ft 385 kts 76°
2026-04-30 20:27 51.70314 -0.05608 29249 ft 382 kts 81°
2026-04-30 20:28 51.72833 0.10847 29221 ft 381 kts 80°
2026-04-30 20:30 51.76025 0.31572 29231 ft 380 kts 81°
2026-04-30 20:31 51.79781 0.56350 29216 ft 380 kts 81°
2026-04-30 20:32 51.82928 0.77028 29212 ft 381 kts 80°
2026-04-30 20:33 51.84999 0.89455 29223 ft 383 kts 77°
2026-04-30 20:34 51.87328 1.01820 29217 ft 383 kts 77°
2026-04-30 20:35 51.89568 1.14161 29235 ft 382 kts 78°
2026-04-30 20:35 51.91783 1.26563 29245 ft 382 kts 78°
2026-04-30 20:36 51.93260 1.34823 29241 ft 382 kts 78°
2026-04-30 20:37 51.95463 1.47232 29232 ft 382 kts 77°
2026-04-30 20:37 51.96909 1.55444 29237 ft 382 kts 77°
2026-04-30 20:38 51.98358 1.63729 29242 ft 381 kts 78°
2026-04-30 20:38 51.99781 1.72009 29249 ft 381 kts 78°
2026-04-30 20:39 52.01717 1.84507 29253 ft 381 kts 79°
2026-04-30 20:40 52.03616 1.96961 28991 ft 377 kts 79°
2026-04-30 20:40 52.04245 2.01050 28620 ft 370 kts 79°
2026-04-30 20:40 52.04867 2.05081 28214 ft 365 kts 79°
2026-04-30 20:41 52.06081 2.12990 27384 ft 357 kts 79°
2026-04-30 20:41 52.06675 2.16882 26979 ft 353 kts 79°
2026-04-30 20:41 52.07263 2.20741 26560 ft 350 kts 79°
2026-04-30 20:41 52.07845 2.24568 26141 ft 347 kts 79°
2026-04-30 20:42 52.08411 2.28316 25712 ft 345 kts 79°
2026-04-30 20:42 52.08977 2.32094 25278 ft 344 kts 79°
2026-04-30 20:42 52.10095 2.39624 24392 ft 341 kts 79°
2026-04-30 20:43 52.10651 2.43370 23948 ft 341 kts 79°
2026-04-30 20:43 52.11227 2.47108 23441 ft 341 kts 75°
2026-04-30 20:43 52.12145 2.50657 23055 ft 343 kts 63°
2026-04-30 20:44 52.14614 2.57401 22465 ft 347 kts 62°
2026-04-30 20:44 52.15819 2.60731 22146 ft 346 kts 62°
2026-04-30 20:44 52.18247 2.67472 21557 ft 343 kts 63°
2026-04-30 20:45 52.20653 2.74150 20938 ft 341 kts 63°
2026-04-30 20:45 52.21848 2.77473 20635 ft 339 kts 63°
2026-04-30 20:45 52.23040 2.80788 20323 ft 338 kts 63°
2026-04-30 20:46 52.26561 2.90621 19439 ft 334 kts 63°
2026-04-30 20:46 52.27729 2.93894 19142 ft 333 kts 63°
2026-04-30 20:47 52.30049 3.00387 18539 ft 329 kts 63°
2026-04-30 20:47 52.31198 3.03603 18226 ft 327 kts 63°
2026-04-30 20:48 52.33474 3.09988 17629 ft 324 kts 63°
2026-04-30 20:48 52.34600 3.13162 17348 ft 322 kts 64°
2026-04-30 20:48 52.35720 3.16326 17061 ft 320 kts 64°
2026-04-30 20:48 52.36833 3.19471 16770 ft 319 kts 63°
2026-04-30 20:49 52.37925 3.22564 16481 ft 317 kts 63°
2026-04-30 20:49 52.39024 3.25683 16197 ft 316 kts 63°
2026-04-30 20:49 52.40120 3.28794 15917 ft 314 kts 64°
2026-04-30 20:50 52.42290 3.34977 15349 ft 311 kts 64°
2026-04-30 20:50 52.43366 3.38041 15089 ft 310 kts 64°
2026-04-30 20:50 52.44423 3.41114 14811 ft 307 kts 68°
2026-04-30 20:50 52.45130 3.44367 14542 ft 301 kts 80°
2026-04-30 20:51 52.45605 3.47705 14269 ft 300 kts 81°
2026-04-30 20:51 52.46547 3.54265 13708 ft 296 kts 80°
2026-04-30 20:51 52.47019 3.57541 13432 ft 294 kts 80°
2026-04-30 20:52 52.47485 3.60791 13191 ft 292 kts 81°
2026-04-30 20:52 52.47948 3.64022 12935 ft 291 kts 81°
2026-04-30 20:52 52.48861 3.70451 12407 ft 288 kts 81°
2026-04-30 20:53 52.49313 3.73650 12158 ft 287 kts 81°
2026-04-30 20:53 52.49611 3.75760 11978 ft 286 kts 81°
2026-04-30 20:53 52.50211 3.80010 11650 ft 285 kts 81°
2026-04-30 20:54 52.51088 3.86286 11148 ft 283 kts 81°
2026-04-30 20:54 52.51527 3.89430 10889 ft 282 kts 81°
2026-04-30 20:54 52.51932 3.92568 10630 ft 279 kts 86°
2026-04-30 20:55 52.51489 3.97667 10200 ft 271 kts 115°
2026-04-30 20:55 52.50497 4.00266 9860 ft 268 kts 131°
2026-04-30 20:55 52.49219 4.02476 9543 ft 267 kts 134°
2026-04-30 20:56 52.46681 4.06852 8941 ft 263 kts 133°
2026-04-30 20:56 52.45015 4.09726 8547 ft 261 kts 133°
2026-04-30 20:56 52.42525 4.14014 7946 ft 258 kts 133°
2026-04-30 20:57 52.41691 4.15448 7745 ft 257 kts 133°
2026-04-30 20:57 52.40482 4.17526 7458 ft 255 kts 133°
2026-04-30 20:57 52.39263 4.19621 7161 ft 253 kts 133°
2026-04-30 20:58 52.36848 4.23764 6573 ft 249 kts 133°
2026-04-30 20:58 52.35655 4.25808 6290 ft 248 kts 133°
2026-04-30 20:58 52.34480 4.27816 5989 ft 247 kts 134°
2026-04-30 20:58 52.33304 4.29825 5705 ft 241 kts 134°
2026-04-30 20:59 52.31046 4.33674 5179 ft 228 kts 134°
2026-04-30 20:59 52.29961 4.35519 4911 ft 223 kts 134°
2026-04-30 21:00 52.27870 4.39088 4394 ft 213 kts 134°
2026-04-30 21:00 52.25755 4.42346 3920 ft 208 kts 146°
2026-04-30 21:01 52.23296 4.44863 3172 ft 208 kts 147°
2026-04-30 21:01 52.22202 4.46333 3074 ft 204 kts 132°
2026-04-30 21:01 52.21038 4.50268 2888 ft 190 kts 103°
2026-04-30 21:02 52.21037 4.52437 2820 ft 194 kts 85°
2026-04-30 21:02 52.21499 4.54537 2685 ft 202 kts 67°
2026-04-30 21:02 52.22248 4.56486 2439 ft 202 kts 65°
2026-04-30 21:02 52.22990 4.58381 2175 ft 194 kts 65°
2026-04-30 21:03 52.23686 4.60172 1934 ft 184 kts 66°
2026-04-30 21:03 52.24344 4.61867 1707 ft 170 kts 66°
2026-04-30 21:03 52.24949 4.63429 1475 ft 155 kts 67°
2026-04-30 21:03 52.25506 4.64875 1272 ft 149 kts 67°
2026-04-30 21:04 52.26046 4.66275 1072 ft 140 kts 66°
2026-04-30 21:04 52.26548 4.67580 893 ft 133 kts 66°
2026-04-30 21:04 52.27526 4.70127 531 ft 133 kts 62°
2026-04-30 21:05 52.28014 4.71390 403 ft 131 kts 63°
2026-04-30 21:05 52.28503 4.72666 194 ft 131 kts 63°
2026-04-30 21:05 52.28990 4.73926 26 ft 131 kts 63°
2026-04-30 21:05 52.29423 4.75060 -3 ft 95 kts 58°
2026-04-30 21:06 52.29683 4.75725 -2 ft 48 kts 50°
2026-04-30 21:06 52.29886 4.75895 -1 ft 18 kts 26°
2026-04-30 21:06 52.29991 4.75995 -1 ft 18 kts 45°
2026-04-30 21:06 52.30061 4.76171 -1 ft 19 kts 56°
2026-04-30 21:07 52.30135 4.76363 -1 ft 21 kts 58°
2026-04-30 21:07 52.30215 4.76572 -1 ft 23 kts 57°
2026-04-30 21:07 52.30302 4.76797 -1 ft 24 kts 58°
2026-04-30 21:07 52.30395 4.77038 -1 ft 26 kts 58°
2026-04-30 21:08 52.30489 4.77282 -1 ft 26 kts 58°
2026-04-30 21:08 52.30568 4.77487 -1 ft 16 kts 58°
2026-04-30 21:08 52.30652 4.77586 -1 ft 17 kts 11°
2026-04-30 21:08 52.30768 4.77598 -1 ft 16 kts
2026-04-30 21:09 52.30884 4.77610 -1 ft 17 kts
2026-04-30 21:09 52.31008 4.77621 -1 ft 20 kts
2026-04-30 21:09 52.31155 4.77632 -1 ft 22 kts
2026-04-30 21:09 52.31319 4.77648 -1 ft 25 kts
2026-04-30 21:10 52.31449 4.77636 -1 ft 15 kts 338°
2026-04-30 21:10 52.31533 4.77521 -1 ft 17 kts 313°
2026-04-30 21:10 52.31576 4.77348 -1 ft 17 kts 271°
2026-04-30 21:10 52.31570 4.77152 -1 ft 20 kts 268°
2026-04-30 21:11 52.31561 4.76894 -1 ft 23 kts 266°
2026-04-30 21:11 52.31553 4.76637 -1 ft 22 kts 266°
2026-04-30 21:11 52.31544 4.76398 -1 ft 20 kts 267°
2026-04-30 21:11 52.31536 4.76172 -1 ft 19 kts 267°
2026-04-30 21:12 52.31528 4.75958 -1 ft 18 kts 266°
2026-04-30 21:12 52.31522 4.75754 -1 ft 18 kts 267°
2026-04-30 21:12 52.31515 4.75561 -1 ft 16 kts 266°
2026-04-30 21:12 52.31501 4.75462 -1 ft 7 kts 232°
2026-04-30 21:13 52.31457 4.75456 -1 ft 8 kts 158°
2026-04-30 21:13 52.31367 4.75476 -1 ft 18 kts 176°
2026-04-30 21:13 52.31227 4.75489 -1 ft 21 kts 176°
2026-04-30 21:13 52.31111 4.75488 -1 ft 14 kts 201°
2026-04-30 21:14 52.31054 4.75371 -1 ft 13 kts 238°
2026-04-30 21:14 52.31017 4.75275 -1 ft 6 kts 232°
2026-04-30 21:14 52.30983 4.75283 -1 ft 5 kts 151°
2026-04-30 21:14 52.30967 4.75298 -1 ft 2 kts 149°
2026-04-30 21:15 52.30965 4.75301 -1 ft 0 kts 149°